Location: London
(51.5142°N, 0.0931°W)
Time: 15:28:12
(UTC+00:00)

Daily predictions for brighter satellites

Satellite Brightness Start Highest point End
(mag) Time Altitude Azimuth Time Altitude Azimuth Time Altitude Azimuth
CZ-4C R/B 3.5 16:23:18 10° NW 16:29:03 34° NNE 16:35:53 10° E
Meteor 1-31 Rocket 3.3 16:26:04 10° S 16:29:50 62° W 16:33:38 10° NNW
Cosmos 1603 4.3 16:24:35 10° SW 16:30:16 60° NW 16:36:00 10° NNE
Cosmos 1777 Rocket 4.2 16:25:06 10° NNW 16:30:25 85° WSW 16:35:42 10° SSE
SL-16 R/B 3.9 16:26:14 10° W 16:30:49 24° NW 16:35:27 10° NNE
USA 81 4.2 16:27:21 10° S 16:32:37 86° W 16:37:56 10° N
Cosmos 1408 Rocket 4.0 16:30:12 10° N 16:34:17 39° ENE 16:38:23 10° SE
Lacrosse 5 rocket 2.0 16:31:32 10° W 16:35:05 38° N 16:38:48 10° ENE
Cosmos 1464 Rocket 4.4 16:32:42 10° SSE 16:38:43 47° E 16:44:46 10° NNE
Cosmos 1743 Rocket 4.5 16:35:43 10° N 16:39:23 26° ENE 16:43:02 10° SE
Cosmos 1898 Rocket 4.2 16:36:26 10° NNW 16:41:11 32° NE 16:45:52 10° ESE
NOAA 11 4.3 16:35:50 10° SSE 16:41:16 86° WSW 16:46:44 10° NNW
CORIOLIS 4.4 16:37:53 10° SE 16:43:01 46° ENE 16:48:11 10° N
Iridium 2 3.6 16:42:37 10° N 16:46:24 72° E 16:50:08 10° S
Cosmos 1943 4.1 16:44:06 10° WSW 16:49:29 45° NW 16:54:54 10° NNE
Nadezhda 4 Rocket 4.1 16:43:30 10° N 16:49:42 54° ENE 16:55:53 10° SSE
H-2A R/B 2.7 16:45:36 10° SE 16:50:10 32° ENE 16:54:39 10° N
CZ-2D R/B 4.2 16:48:26 10° SE 16:51:42 27° ENE 16:54:58 10° N
RESURS DK-1 4.3 16:48:57 10° W 16:52:16 23° NW 16:55:36 10° NNE
Cosmos 1833 Rocket 4.1 16:48:50 10° SE 16:52:35 19° E 16:56:02 11° ENE
Cosmos 2219 Rocket 4.3 16:54:16 10° N 16:55:03 10° N 16:55:50 10° N
Meteor PRIRODA 3.7 16:51:37 10° SSE 16:55:16 85° WSW 16:58:56 10° NNW
ISS -3.7 16:53:12 10° W 16:56:37 88° N 16:59:39 13° E
Cosmos-2242 4.2 16:54:56 10° SSW 16:59:03 44° WNW 17:03:10 10° N
USA 306 2.9 16:56:03 10° WSW 17:00:20 82° SSE 17:03:56 14° ENE
ARGOS 4.0 16:56:28 10° ESE 17:00:59 28° ENE 17:05:30 10° N
Cosmos 1092 Rocket 4.4 16:55:01 10° N 17:01:01 42° ENE 17:06:59 10° SE
CZ-4B R/B 3.7 16:57:01 10° SE 17:01:51 34° ENE 17:06:38 10° N
Cosmos 1891 Rocket 4.5 16:56:31 10° S 17:02:41 76° E 17:09:04 10° NNE
SJ 16-02 2.2 16:59:02 10° NNW 17:03:20 56° WSW 17:07:37 10° S
Cosmos 1606 2.6 17:00:51 10° S 17:04:33 66° E 17:08:20 10° NNE
ATLAS CENTAUR R/B 4.0 16:57:08 10° SSW 17:05:52 31° SE 17:09:32 14° E
PSLV R/B 4.0 17:03:22 10° SE 17:06:52 42° ENE 17:10:24 10° N
Cosmos 1500 Rocket 3.7 17:05:15 10° N 17:09:38 51° ENE 17:13:56 10° SSE
AQUARIUS 4.1 17:05:49 10° SSE 17:10:16 67° ENE 17:14:45 10° N
Cosmos 1862 4.5 17:06:44 10° NNW 17:10:35 47° W 17:14:25 10° SSW
Cosmos 1513 Rocket 4.4 17:04:59 10° S 17:11:06 83° E 17:17:20 10° NNE
Meteor 2-2 Rocket 4.4 17:05:23 10° S 17:11:25 80° E 17:17:26 10° NNE
NOAA 12 4.5 17:08:21 10° S 17:13:39 71° WSW 17:19:00 10° NNW
Cosmos 1939 Rocket 2.9 17:12:02 10° SSE 17:16:10 87° WSW 17:20:18 10° NNW
USA 307 2.9 17:12:56 10° WSW 17:17:14 90° SSE 17:20:14 19° ENE
CZ-2C R/B 3.5 17:14:12 10° NE 17:18:34 26° E 17:22:51 10° SSE
USA 276 2.9 17:16:09 10° W 17:19:11 47° SSW 17:21:52 12° ESE
FengYun 1-2 T 4.5 17:13:51 10° S 17:19:27 76° WSW 17:25:03 10° NNW
deb Kosmos-1763 3.8 17:17:05 10° SSW 17:20:30 85° ESE 17:23:23 14° NNE
Cosmos 1805 Rocket 3.9 17:16:31 10° N 17:20:38 40° ENE 17:24:43 10° SE
Cosmos 1500 4.1 17:18:06 10° NNE 17:21:17 25° ENE 17:24:27 10° SE
NOSS 2-2 (C) 4.4 17:17:28 10° NW 17:21:57 46° NE 17:27:57 10° ESE
NOAA 6 4.1 17:16:50 10° SSE 17:21:59 85° WSW 17:27:10 10° NNW
Cosmos 2034 Rocket 3.9 17:16:43 10° S 17:22:47 67° E 17:28:54 10° NNE
NOSS 2-1 (E) 3.2 17:20:43 10° SW 17:23:55 62° NW 17:26:15 19° NE
Cosmos 2360 Rocket 4.0 17:21:50 10° N 17:24:35 13° NNE 17:26:02 12° NE
Cosmos 1842 Rocket 3.5 17:20:57 10° S 17:25:24 80° E 17:29:55 10° NNE
ATLAS CENTAUR R/B 2.3 17:23:33 10° WSW 17:27:37 45° NW 17:31:11 15° NNE
Cosmos 1937 Rocket 3.7 17:22:30 10° NNW 17:27:42 50° ENE 17:32:53 10° SE
Cosmos 1763 Rocket 3.9 17:23:51 10° S 17:28:33 40° ESE 17:31:56 18° NE
Sich 1 3.4 17:25:07 10° N 17:29:10 38° ENE 17:33:10 10° SE
COSMOS 2455 4.1 17:25:13 10° SSE 17:29:19 19° ESE 17:30:31 18° E
USA 267 3.3 17:24:23 17° ENE 17:29:43 87° NNW 17:36:17 10° WSW
Meteor 1-25 Rocket 4.1 17:28:43 10° N 17:34:18 72° ENE 17:39:52 10° SSE
GEOS 3 Rocket 3.6 17:33:35 10° ESE 17:38:47 66° NE 17:43:56 10° NW
USA 308 2.9 17:35:16 10° WSW 17:39:33 78° NNW 17:41:37 29° ENE
Cosmos 2221 2.9 17:35:52 10° SSW 17:40:06 65° WNW 17:44:24 10° N
Cosmos 990 Rocket 4.1 17:36:13 10° NNW 17:41:28 79° WSW 17:46:38 10° SSE
USA 229 DEB 3.9 17:35:06 10° NW 17:42:22 87° SW 17:50:09 10° SE
Cosmos 2322 Rocket 3.6 17:38:25 10° NNW 17:42:25 19° NNE 17:43:06 19° NE
USA 229 3.9 17:35:12 10° NW 17:42:28 88° SW 17:50:14 10° SE
Cosmos 2369 3.7 17:38:41 10° NNW 17:44:22 58° NE 17:50:01 10° SE
ATLAS 5 CENTAUR R/B 2.9 17:34:12 10° WNW 17:44:28 50° NNE 17:46:14 30° ENE
Cosmos 44 Rocket 4.3 17:41:58 10° NNW 17:46:20 28° NNE 17:47:24 26° NE
Cosmos 1634 Rocket 4.1 17:41:20 10° SSE 17:47:23 51° E 17:53:30 10° NNE
COSMO-SKYMED 1 3.0 17:47:31 28° NE 17:49:16 41° E 17:53:22 10° SSE
Cosmos 1697 Rocket 2.6 17:44:05 10° NNW 17:49:45 86° ENE 17:55:22 10° SSE
deb Chang Zheng 4 3.4 17:46:14 10° SSE 17:50:31 68° ENE 17:54:50 10° N
Cosmos 1656 4.5 17:45:52 10° NW 17:51:13 53° WSW 17:56:37 10° S
ATLAS 2AS CENTAUR R/B 3.9 17:44:24 10° W 17:51:30 37° NNW 17:56:25 18° NE
Cosmos 372 Rocket 4.1 17:46:27 10° NNW 17:51:33 51° ENE 17:56:20 12° SE
Cosmos 1980 Rocket 2.3 17:46:35 10° NNW 17:52:10 54° NE 17:56:40 16° SE
SMAP 4.4 17:51:11 10° S 17:55:36 42° W 18:00:03 10° NNW
Cosmos 1782 3.0 17:52:43 10° SSE 17:56:32 45° E 17:57:01 43° ENE
Cosmos 2026 Rocket 3.8 17:50:47 10° N 17:57:00 80° E 18:03:06 10° SSE
SL-16 R/B 3.2 17:52:57 10° NNW 17:57:39 25° NE 17:57:57 25° NE
Cosmos 858 Rocket 4.4 17:52:36 10° NNW 17:57:55 76° ENE 18:03:13 10° SSE
CZ-4 R/B 3.0 18:00:14 21° NNE 18:00:14 21° NNE 18:01:54 10° N
Cosmos 1818 4.2 17:53:49 10° NW 17:58:54 36° NNE 18:00:10 32° ENE
Cosmos 2333 Rocket 4.1 17:56:17 10° NNW 17:59:17 14° NNE 17:59:41 14° NNE
Cosmos 2195 Rocket 4.5 17:53:14 10° N 17:59:23 87° W 18:05:35 10° S
ERBS 2.3 17:57:22 10° WSW 18:00:33 63° NNW 18:00:55 57° NNE
Cosmos 2237 Rocket 4.4 18:00:50 10° N 18:01:32 10° N 18:02:14 10° N
Meteor 2-21 4.3 17:56:26 10° N 18:02:34 80° ENE 18:08:38 10° SSE
Okean O Rocket 1.5 17:58:51 10° SSE 18:03:18 75° ENE 18:07:46 10° NNW
Cosmos 2084 4.1 18:00:20 10° NW 18:04:32 57° SW 18:08:54 10° SSE
Cosmos 1340 Rocket 4.3 18:01:00 10° NNW 18:04:48 39° W 18:08:36 10° SSW
Cosmos 2082 Rocket 2.9 18:00:18 10° SSE 18:05:10 31° ESE 18:05:10 31° ESE
NOSS 2-1 (C) 4.4 18:02:25 10° W 18:05:18 29° NNW 18:06:16 25° N
NOSS 3-1 (A) 4.4 17:58:27 10° NW 18:05:45 68° SW 18:14:20 10° SSE
YAOGAN 1 3.1 18:07:40 38° NE 18:07:40 38° NE 18:10:55 10° N
Cosmos 1633 Rocket 3.7 18:02:41 10° N 18:05:48 36° NE 18:05:48 36° NE
Cosmos 1602 4.0 18:04:23 10° NNW 18:08:13 69° W 18:12:03 10° S
SL-08 RB Rocket 3.7 18:03:47 10° SSE 18:08:21 59° ENE 18:12:55 10° N
USA 305 3.0 18:04:10 10° W 18:08:23 65° N 18:09:15 50° NE
Cosmos 2278 3.8 18:04:24 10° NNW 18:10:02 54° NE 18:12:17 34° ESE
SKYMED 3 4.4 18:11:53 38° NNE 18:13:28 69° ESE 18:17:47 10° S
COSMOS 2406 3.3 18:07:59 10° S 18:13:35 55° ESE 18:15:25 39° ENE
SL-19 R/B 4.4 18:08:25 13° NNE 18:13:53 71° ESE 18:20:18 10° S
Lacrosse 5 rocket 1.8 18:11:04 10° WNW 18:14:43 42° N 18:14:43 42° N
NOSS 2-2 (D) 4.1 18:10:32 10° NW 18:15:25 84° NE 18:19:46 22° SE
NOSS 2-2 (E) 4.3 18:11:36 10° NW 18:16:40 84° SW 18:23:03 13° SE
SL-16 R/B 4.5 18:15:26 10° NNW 18:17:13 11° NNW 18:18:59 10° N
CZ-4C R/B 2.8 18:11:54 10° NW 18:18:44 69° NE 18:23:06 29° ESE
SJ-11-01 4.4 18:16:02 10° S 18:20:48 79° WSW 18:25:34 10° NNW
Cosmos 1933 3.7 18:18:37 10° SSW 18:22:40 65° WNW 18:24:53 25° N
Cosmos 1898 Rocket 4.4 18:18:24 10° NNW 18:23:30 50° WSW 18:28:30 10° S
H-2A R/B 4.4 18:30:03 16° N 18:30:03 16° N 18:30:58 10° N
Cosmos 1666 Rocket 3.4 18:24:33 10° N 18:29:03 84° ENE 18:33:29 10° SSE
Feng Yun 1-1 Rocket 4.3 18:23:14 10° SSE 18:29:10 83° ENE 18:35:05 10° NNW
H-2A R/B 3.1 18:24:29 10° S 18:29:29 45° W 18:34:22 10° NNW
Cosmos 468 Rocket 4.1 18:25:09 10° SSW 18:30:18 73° WNW 18:32:49 31° NNE
ISS -2.7 18:30:04 10° W 18:32:38 47° W 18:32:38 47° W
Meteor 1-26 Rocket 4.3 18:27:31 10° SSW 18:33:28 88° W 18:39:34 10° NNE
Cosmos 540 Rocket 3.3 18:28:58 10° SSW 18:34:04 80° ESE 18:34:57 61° NE
Cosmos 1833 Rocket 2.6 18:30:09 10° SSW 18:35:47 87° WNW 18:37:45 43° NNE
SL-24 R/B - RUBIN 2 3.5 18:31:36 10° NW 18:36:14 79° SW 18:36:39 71° S
Cosmos 1151 Rocket 4.3 18:32:24 10° S 18:34:32 28° S 18:34:32 28° S
SKYMED 2 3.7 18:36:07 43° N 18:37:26 72° WNW 18:41:45 10° SSW
USA 306 3.3 18:36:09 10° W 18:39:56 57° NNW 18:39:56 57° NNW
ARGOS 3.7 18:35:36 10° S 18:40:56 59° W 18:46:19 10° NNW
Cosmos 2219 Rocket 4.1 18:38:03 10° NNW 18:40:16 15° N 18:40:16 15° N
CZ-4B R/B 4.2 18:37:05 10° S 18:42:18 46° W 18:47:29 10° NNW
Meteor 2-8 Rocket 4.3 18:50:26 10° S 18:56:33 76° E 18:57:07 70° NE
USA 307 3.9 18:53:06 10° W 18:56:15 44° WNW 18:56:15 44° WNW
CZ-2C R/B 3.2 18:55:39 20° N 18:59:12 55° WNW 19:04:14 10° SW
ATLAS CENTAUR R/B 3.7 19:04:25 10° WNW 19:07:18 19° NNW 19:07:18 19° NNW
Cosmos 2360 Rocket 3.7 19:05:13 10° NNW 19:07:48 24° N 19:07:48 24° N
USA 267 3.5 19:11:44 54° NNE 19:12:31 57° N 19:18:54 10° W
Cosmos 841 Rocket 3.8 19:07:39 10° SW 19:12:10 61° WSW 19:12:10 61° WSW
COSMOS 2455 2.9 19:08:25 10° SSW 19:13:43 70° SSW 19:13:43 70° SSW
Cosmos 2279 Rocket 4.4 19:14:55 10° SSW 19:21:03 59° WNW 19:27:12 10° N
Cosmos 2266 Rocket 4.0 19:16:27 10° NNW 19:22:48 78° W 19:23:20 72° SW
COSMO-SKYMED 1 4.4 19:24:44 27° NW 19:25:17 27° WNW 19:28:58 10° WSW
Cosmos 2322 Rocket 3.5 19:21:58 10° NNW 19:24:55 31° NNW 19:24:55 31° NNW
CZ-4 R/B 4.2 19:36:13 13° NW 19:36:13 13° NW 19:36:50 10° NNW
Cosmos 1980 Rocket 3.7 19:30:58 10° NW 19:35:57 32° WSW 19:38:33 22° SSW
ATLAS CENTAUR R/B 3.8 19:30:45 10° WSW 19:35:23 36° W 19:35:23 36° W
Cosmos 1655 Rocket 4.5 19:32:49 10° NNW 19:39:06 59° W 19:40:33 48° SW
SL-16 R/B 3.5 19:36:46 10° NNW 19:39:51 34° NNW 19:39:51 34° NNW
ATLAS 2AS CENTAUR R/B 3.9 19:37:38 10° NW 19:43:51 33° N 19:43:51 33° N
Cosmos 2333 Rocket 4.3 19:40:04 10° NNW 19:41:41 18° NNW 19:41:41 18° NNW
Cosmos 2082 Rocket 3.4 19:43:27 10° SW 19:47:04 37° WSW 19:47:04 37° WSW
Lacrosse 5 rocket 4.5 19:50:07 10° WNW 19:50:18 11° WNW 19:50:18 11° WNW
CZ-4C R/B 3.8 20:00:32 10° NW 20:07:20 43° WSW 20:08:20 42° SW
